sat.trackr.live / text

‹ back to catalog

STARLINK-5408

NORAD 54810 · 2022-175BE

PAYLOAD ACTIVE UNKNOWN

§ Identity

Operator
Country
US
Launch date
2022-12-17
Launch site
AFETR
Launch vehicle
Mass (kg)
RCS (m²)

Purposes: comms

External: N2YO · Heavens-Above · Gunter

§ Orbital elements

Epoch: 2026-09-20T12:50:49.577856Z

Period
93.90 min
Inclination
53.1594°
Eccentricity
0.0001180
Mean motion
15.33542882 rev/d
Perigee alt
464.4 km
Apogee alt
466.1 km
Semi-major
6,843.4 km
B*
8.3270e-5
RAAN
217.6071°
Arg perigee
103.5132°
Mean anomaly
256.6002°
Rev number
20,977

§ Raw data

STARLINK-54081 54810U 22175BE  26263.53529604  .00002366  00000+0  83270-4 0  99982 54810  53.1594 217.6071 0001180 103.5132 256.6002 15.33542882209773

JSON: /api/v1/satellites/54810 · /tle

For live sub-satellite position, see the globe view (requires WebGL).

§ Visibility from observer

Set your observer location to see the next 7 days of passes ≥ 10°. The values pass through the URL so the page stays shareable.

No JS? Fill the form by hand. The geolocation button needs JavaScript.